星链-31730 (STARLINK-31730 )

导读 | 星芒AI

STARLINK-31730 是 SpaceX Starlink 卫星互联网项目中的一颗低轨卫星,属于第 11 批组网卫星(Batch 11)。该卫星于 2022 年 9 月 由猎鹰 9 号火箭发射升空,运行在约 550 公里的近地轨道,旨在为全球提供高速、低延迟的宽带互联网服务。Starlink 卫星采用先进通信技术,支持全球覆盖,尤其服务于偏远地区。STARLINK-31730 的部署有助于增强 Starlink 网络的稳定性和容量,推动 SpaceX 在全球卫星互联网市场的布局。

基本信息
目录编号:
59555
目录名称:
STARLINK-31730
国际标识:
2024-074X
轨道中心:
EARTH
卫星名称:
星链-31730
卫星全名:
星链-31730 (STARLINK-31730 )
卫星状态:
在轨 (已飞行611 天)
发射日期:
2024-04-18 UTC
国别 :
美国 (US)
星等 :
--
轨道信息
数据来源 国际轨道数据
星历时间: 2025-12-19T22:45:03+0800
11小时前
查看轨道信息
半长轴: 6861.176km
偏心率: 0.0001191
轨道倾角: 43.004°
近地点辐角 276.712°
升交点赤经 76.108°
平近点角 83.359°
近地点: 482.221km
远地点: 483.857km
周期: 94.267分钟
每日圈数: 15.275835
详细信息
固有亮度:
5
最大亮度:
1.5
卫星平台:
Starlink v2.0 mini
覆盖范围:
全球
运营商:
太空探索技术公司
运营商所在国:
美国
制造商(研发单位):
太空探索技术公司
制造商所在国:
美国
使用方式:
暂无
卫星简介
星链(Starlink)计划是由太空探索技术公司(SpaceX)提出的一个巨型低轨卫星互联网星座项目,计划在2019年至2024年间在太空搭建由约1.2万颗卫星组成的“星链”网络,其中1584颗将部署在地球上空550千米处的近地轨道,并从2020年开始工作。该卫星仍在工作。
2D轨道图
3D轨道图
轨道高度分析图
轨道倾角分析图
轨道综合分析图
查看轨道综合分析图